Regional Weather Roundup
Issued by NWS

Home | Current Version | Previous Version | Text Only | Print | Product List | Glossary On
Versions: 1 2 3 4 5 6 7 8 9 10 11 12 13 14 15 16 17 18 19 20 21 22 23 24 25 26 27 28 29 30 31 32 33 34 35 36 37 38 39 40 41 42 43 44 45 46 47 48 49 50
000
ASHW40 PHFO 210630
RWRHI

WEATHER ROUNDUP FOR HAWAII
NATIONAL WEATHER SERVICE HONOLULU HI
800 PM HST WED AUG 20 2014

THIS IS AN AUTOMATED REPORT THAT HAS NOT BEEN QUALITY CONTROLLED.

NOTE..."FAIR" INDICATES FEW OR NO CLOUDS BELOW 12,000 FEET WITH NO
SIGNIFICANT WEATHER AND/OR OBSTRUCTIONS TO VISIBILITY.

* - THESE SITES REPORT LIMITED FIELDS

HIZ001>004-210700-
KAUAI-NIIHAU-

CITY           SKY/WX    TMP DP  RH WIND       PRES   REMARKS
LIHUE APT      CLEAR     78  68  71 NE13      30.00R
PORT ALLEN*      N/A     77 N/A N/A E8          N/A
POIPU*           N/A     77 N/A N/A NE7G13      N/A
PRINCEVILLE*   NOT AVBL
KOKOLE POINT*    N/A     81  55  41 MISG        N/A
MOLOAA DAIRY*  NOT AVBL
WAIMEA HTS*    NOT AVBL
PUU OPAE*      NOT AVBL
PUU LUA*       NOT AVBL
MAKAHA RIDGE*  NOT AVBL
$$

HIZ005>011-210700-
OAHU-

CITY           SKY/WX    TMP DP  RH WIND       PRES   REMARKS
HONOLULU       PTCLDY    80  68  66 E13       29.97R
KALAELOA       CLEAR     79  68  69 CALM      29.98R
KANEOHE MCB    CLOUDY    75  71  87 E9G17     29.98R
WHEELER FIELD  FAIR      75  67  75 NE7       29.99R
BELLOWS*         N/A    N/A N/A N/A E16         N/A
KAHUKU*          N/A    N/A N/A N/A E6G15       N/A
WHEELER*       NOT AVBL
WAIANAE HARBOR NOT AVBL
DILLINGHAM*      N/A     77  68  73 E2G10       N/A
KAHUKU TRN*      N/A     73  72  94 E3G14       N/A
KAWAILOA*      NOT AVBL
KII*             N/A     77  72  83 E13G24      N/A
MAKUA RANGE*     N/A     79  68  69 E5G16       N/A
OAHU FOREST NW NOT AVBL
SCHOFIELD BRK*   N/A     73  66  78 MISG        N/A
SCHOFIELD S*   NOT AVBL
WAIANAE VLY*   NOT AVBL
KUAOKALA*      NOT AVBL
HONOULIUULI*   NOT AVBL
MOKUOLOE IS*     N/A    N/A N/A N/A MISG        N/A
PALEHUA*       NOT AVBL
WAIAWA PHB*    NOT AVBL
$$

HIZ012>013-210700-
MOLOKAI-

CITY           SKY/WX    TMP DP  RH WIND       PRES   REMARKS
MOLOKAI AIRPT  CLOUDY    78  68  71 NE9G17    29.99R
KALAUPAPA      NOT AVBL
MAKAPULAPAI*   NOT AVBL
MOLOKAI 1*     NOT AVBL
PUU ALII*        N/A     61  60  98 E1          N/A
$$

HIZ016-210700-
KAHOOLAWE-

CITY           SKY/WX    TMP DP  RH WIND       PRES   REMARKS
KAHOOLAWE*     NOT AVBL
HAKIOAWA*      NOT AVBL
HONOKANAIA*      N/A     79  69  72 NE10G18   29.98R
KANELOA*         N/A     75  70  83 E18G30    30.07R
KEALIALALO*    NOT AVBL
LUA MAKIKA*    NOT AVBL
$$

HIZ014>015-210700-
LANAI-

CITY           SKY/WX    TMP DP  RH WIND       PRES   REMARKS
LANAI CITY     FAIR      73  68  84 NE16      30.03R
LANAI 1*       NOT AVBL
$$

HIZ017>028-210700-
MAUI-

CITY           SKY/WX    TMP DP  RH WIND       PRES   REMARKS
KAHULUI        PTCLDY    78  69  73 NE13G22   29.97R
KAPALUA-W MAUI NOT AVBL
HANA AIRPORT   CLOUDY    77  72  83 SE6       30.03R
HANA*            N/A     77 N/A N/A E5          N/A
HALEAKALA SUMM   N/A     48  25  40 SE10        N/A
MAALAEA BAY*   NOT AVBL
HALEAKALA*     NOT AVBL
KAUPO GAP*     NOT AVBL
KULA 1*          N/A     52  46  81 E2G8        N/A
$$

HIZ023>026-210700-
BIG ISLAND OF HAWAII COAST AND LOWER SLOPES-

CITY           SKY/WX    TMP DP  RH WIND       PRES   REMARKS
KAILUA KONA    PTCLDY    82  70  66 SE7       29.93R
HILO           CLOUDY    77  75  93 N5        29.98S
HONOKAA*       NOT AVBL
KAWAIHAE MWT*    N/A     82 N/A N/A W5          N/A
KAWAIHAE*        N/A     81 N/A N/A W5          N/A
SOUTH POINT*     N/A     73 N/A N/A E9G15       N/A
UPOLU AIRPORT*   N/A    N/A N/A N/A E16G25      N/A
KAMUELA*       PTCLDY    66  66 100 N14       30.08S FOG
HAKALAU*         N/A     55  52  90 E1          N/A
KALOKO-HONOKO*   N/A     81  70  69 E5        29.94R
PALI 2*          N/A     72  64  78 N12G20      N/A
KEALAKOMO*       N/A     81  68  65 VRB18       N/A
KAUPULEHU*     NOT AVBL
KAPAPALA*        N/A     69  67  93 CALM        N/A
LOWER KAHUKU*  NOT AVBL
PUHE CS*       NOT AVBL
PUHO CS*         N/A     79  71  75 N1          N/A
PTA KEAMUKU*     N/A     66  63  88 CALM        N/A
WAIKOLOA*      NOT AVBL
$$

HIZ027>028-210700-
BIG ISLAND OF HAWAII INTERIOR AND SUMMMITS-

CITY           SKY/WX    TMP DP  RH WIND       PRES   REMARKS
BRADSHAW FIELD PTCLDY    60  51  72 SE9       30.32R
MK VISITOR CEN NOT AVBL
MAUNA KEA*       N/A     36  21  55 SE6         N/A
MAUNA LOA*       N/A     46  39  76 MISG        N/A
MAUNA LOA 1*     N/A     45  43  93 MISG        N/A
PTA KIPUKA*      N/A     61  59  94 W1G7        N/A
PTA RANGE 17*    N/A     63  55  77 N2G12       N/A
PTA WEST*        N/A    N/A N/A N/A SE3         N/A
NENE CABIN*    NOT AVBL
AHUMOA*        NOT AVBL
PTA PORTABLE*  NOT AVBL
PUU MALI*      NOT AVBL
$$

HIC003-210700-
NORTHWEST ISLANDS-

CITY           SKY/WX    TMP DP  RH WIND       PRES   REMARKS
MIDWAY ISLAND  CLEAR     82  72  69 W7        29.98R
MIDWAY NOS*    NOT AVBL
FRENCH FRIGATE NOT AVBL
$$

PHZ110>124-180-210700-
BUOY REPORTS

STATION/POSITION TIME  TEMP    WIND        PRES    WAVE   SWELL
                       AIR SEA DIR/SP/G            HT/PER HT/DIR
                 (UTC) (F)     (DEG/KT/KT) (MB)    (FT/S) (FT/D)
BUOY 51001       NOT AVBL
BUOY 51101       NOT AVBL
BUOY 51100       0600   78 79  100/ 12/ 14 1016.7R
BUOY 51003       0600   81 82   80/  8/ 10 1014.2R   5/17   5
BUOY 51004       0513   79 80   70/ 16/ 17 1013.8R   6/ 8   3/100
BARBERS PT BUOY  NOT AVBL
WAIMEA BAY BUOY  0600      81                N/A     3/ 6
KAILUA BAY BUOY  0600      81                N/A     5/ 6   2/130
LANAI BUOY       NOT AVBL
BARBERS PT 2     0600      81                N/A     3/18   2/190
PAUWELA MAUI     0600      80                N/A     5/ 8
HILO             NOT AVBL
KANEOHE BAY BUOY 0600      80                N/A     4/ 8
HANALEI KAUAI    NOT AVBL
KAHULUI HARBOR   0600   79 81   60/ 13/ 19 1014.7R
HONOLULU HARBOR  0600   80     100/  3/  6 1015.1R
KILO NALU        NOT AVBL
HILO HARBOR      0600   76      20/ 10/ 12 1014.7R
MOKUOLOE         0600      83   90/ 12/ 15 1015.6R
NAWILIWILI       0600      82                N/A
WHOTS BUOY       NOT AVBL
BUOY 51028       NOT AVBL
$$

......................KEY........................................
  SKY/WX - SKY CONDITIONS/PRESENT WEATHER
  TMP    - TEMPERATURE IN FAHRENHEIT
  DWPT   - DEWPOINT IN FAHRENHEIT
  RH     - RELATIVE HUMIDITY IN PERCENT
  WIND   - DIRECTION AND SPEED /MPH FOR ISLANDS...KTS FOR BUOYS/
  PRES   - MEAN SEA LEVEL PRESSURE IN INCHES OF HG
  VSB    - VISIBILITY IN MILES
  HX     - HEAT INDEX
  WCI    - WIND CHILL INDEX
  VRB    - VARIABLE WIND DIRECTION
  N/A    - NOT AVAILABLE


USA.gov is the U.S. government's official web portal to all federal, state and local government web resources and services.